TimeEDT,TemperatureF,Dew PointF,Humidity,Sea Level PressureIn,VisibilityMPH,Wind Direction,Wind SpeedMPH,Gust SpeedMPH,PrecipitationIn,Events,Conditions,WindDirDegrees,DateUTC
12:35 AM,41.0,37.4,87,30.15,10.0,Calm,Calm,-,N/A,,Clear,0,2012-10-22 04:35:00
12:55 AM,39.2,37.4,93,30.14,10.0,Calm,Calm,-,N/A,,Clear,0,2012-10-22 04:55:00
1:15 AM,41.0,37.4,87,30.15,10.0,Calm,Calm,-,N/A,,Clear,0,2012-10-22 05:15:00
1:35 AM,41.0,37.4,87,30.15,10.0,Calm,Calm,-,N/A,,Mostly Cloudy,0,2012-10-22 05:35:00
1:55 AM,39.2,37.4,93,30.15,10.0,Calm,Calm,-,N/A,,Scattered Clouds,0,2012-10-22 05:55:00
2:35 AM,39.2,37.4,93,30.15,10.0,Calm,Calm,-,N/A,,Overcast,0,2012-10-22 06:35:00
2:55 AM,37.4,37.4,100,30.16,10.0,Calm,Calm,-,N/A,,Scattered Clouds,0,2012-10-22 06:55:00
3:35 AM,35.6,35.6,100,30.16,10.0,Calm,Calm,-,N/A,,Clear,0,2012-10-22 07:35:00
3:55 AM,37.4,37.4,100,30.16,10.0,Calm,Calm,-,N/A,,Clear,0,2012-10-22 07:55:00
4:15 AM,37.4,37.4,100,30.16,10.0,Calm,Calm,-,N/A,,Clear,0,2012-10-22 08:15:00
4:55 AM,37.4,37.4,100,30.16,10.0,Calm,Calm,-,N/A,,Clear,0,2012-10-22 08:55:00
5:15 AM,35.6,35.6,100,30.17,10.0,Calm,Calm,-,N/A,,Clear,0,2012-10-22 09:15:00
5:35 AM,35.6,35.6,100,30.17,10.0,Calm,Calm,-,N/A,,Scattered Clouds,0,2012-10-22 09:35:00
5:55 AM,35.6,35.6,100,30.18,10.0,Calm,Calm,-,N/A,,Scattered Clouds,0,2012-10-22 09:55:00
6:15 AM,35.6,35.6,100,30.18,10.0,Calm,Calm,-,N/A,,Clear,0,2012-10-22 10:15:00
6:35 AM,35.6,35.6,100,30.18,10.0,Calm,Calm,-,N/A,,Clear,0,2012-10-22 10:35:00
6:55 AM,35.6,35.6,100,30.19,10.0,Calm,Calm,-,N/A,,Clear,0,2012-10-22 10:55:00
7:15 AM,37.4,37.4,100,30.20,10.0,Calm,Calm,-,N/A,,Clear,0,2012-10-22 11:15:00
7:55 AM,37.4,37.4,100,30.20,10.0,South,3.5,-,N/A,,Scattered Clouds,180,2012-10-22 11:55:00
8:15 AM,39.2,37.4,93,30.20,10.0,South,3.5,-,N/A,,Scattered Clouds,190,2012-10-22 12:15:00
8:35 AM,41.0,39.2,93,30.21,10.0,SSW,3.5,-,N/A,,Scattered Clouds,210,2012-10-22 12:35:00
8:55 AM,42.8,41.0,93,30.22,10.0,SSW,4.6,-,N/A,,Scattered Clouds,210,2012-10-22 12:55:00
9:35 AM,48.2,41.0,76,30.22,10.0,SW,5.8,-,N/A,,Scattered Clouds,230,2012-10-22 13:35:00
9:55 AM,51.8,42.8,71,30.22,10.0,SSW,5.8,-,N/A,,Scattered Clouds,210,2012-10-22 13:55:00
10:35 AM,55.4,42.8,63,30.21,10.0,SW,6.9,-,N/A,,Scattered Clouds,220,2012-10-22 14:35:00
10:55 AM,57.2,42.8,59,30.20,10.0,WSW,8.1,-,N/A,,Scattered Clouds,250,2012-10-22 14:55:00
11:15 AM,59.0,42.8,55,30.20,10.0,SSW,6.9,-,N/A,,Scattered Clouds,210,2012-10-22 15:15:00
11:35 AM,60.8,42.8,52,30.20,10.0,SSW,8.1,-,N/A,,Scattered Clouds,200,2012-10-22 15:35:00
11:55 AM,62.6,42.8,48,30.20,10.0,WSW,6.9,-,N/A,,Scattered Clouds,240,2012-10-22 15:55:00
12:15 PM,62.6,44.6,52,30.19,10.0,SSW,5.8,-,N/A,,Clear,200,2012-10-22 16:15:00
12:35 PM,64.4,44.6,49,30.19,10.0,SSW,4.6,-,N/A,,Scattered Clouds,200,2012-10-22 16:35:00
12:55 PM,64.4,44.6,49,30.17,10.0,WSW,3.5,-,N/A,,Scattered Clouds,250,2012-10-22 16:55:00
1:15 PM,64.4,44.6,49,30.17,10.0,Calm,Calm,-,N/A,,Clear,0,2012-10-22 17:15:00
1:35 PM,66.2,44.6,46,30.16,10.0,WNW,5.8,-,N/A,,Scattered Clouds,290,2012-10-22 17:35:00
1:55 PM,68.0,46.4,46,30.15,4.0,Calm,Calm,-,N/A,,Haze,0,2012-10-22 17:55:00
2:15 PM,68.0,46.4,46,30.15,10.0,Calm,Calm,-,N/A,,Clear,0,2012-10-22 18:15:00
2:35 PM,68.0,46.4,46,30.13,2.0,Calm,Calm,-,N/A,,Haze,0,2012-10-22 18:35:00
2:55 PM,69.8,46.4,43,30.13,10.0,SE,3.5,-,N/A,,Clear,140,2012-10-22 18:55:00
3:15 PM,69.8,48.2,46,30.12,10.0,South,3.5,-,N/A,,Clear,170,2012-10-22 19:15:00
3:35 PM,69.8,46.4,43,30.11,10.0,South,3.5,-,N/A,,Clear,190,2012-10-22 19:35:00
3:55 PM,69.8,46.4,43,30.12,10.0,SE,3.5,-,N/A,,Scattered Clouds,130,2012-10-22 19:55:00
4:15 PM,69.8,46.4,43,30.11,10.0,SSW,4.6,-,N/A,,Clear,200,2012-10-22 20:15:00
4:35 PM,69.8,48.2,46,30.11,10.0,SE,5.8,-,N/A,,Clear,130,2012-10-22 20:35:00
4:55 PM,69.8,48.2,46,30.10,10.0,SSE,4.6,-,N/A,,Clear,150,2012-10-22 20:55:00
5:15 PM,68.0,48.2,49,30.11,10.0,SE,5.8,-,N/A,,Scattered Clouds,140,2012-10-22 21:15:00
5:35 PM,68.0,48.2,49,30.11,10.0,SSE,3.5,-,N/A,,Scattered Clouds,150,2012-10-22 21:35:00
5:55 PM,64.4,48.2,56,30.11,10.0,Calm,Calm,-,N/A,,Clear,0,2012-10-22 21:55:00
6:15 PM,62.6,50.0,63,30.11,10.0,Calm,Calm,-,N/A,,Scattered Clouds,0,2012-10-22 22:15:00
6:35 PM,59.0,50.0,72,30.11,10.0,Calm,Calm,-,N/A,,Scattered Clouds,0,2012-10-22 22:35:00
6:55 PM,59.0,48.2,67,30.12,10.0,Calm,Calm,-,N/A,,Scattered Clouds,0,2012-10-22 22:55:00
7:15 PM,55.4,48.2,77,30.12,10.0,Calm,Calm,-,N/A,,Scattered Clouds,0,2012-10-22 23:15:00
7:35 PM,55.4,46.4,72,30.13,10.0,Calm,Calm,-,N/A,,Scattered Clouds,0,2012-10-22 23:35:00
7:55 PM,53.6,48.2,82,30.13,10.0,Calm,Calm,-,N/A,,Scattered Clouds,0,2012-10-22 23:55:00
8:35 PM,53.6,46.4,77,30.13,10.0,Calm,Calm,-,N/A,,Clear,0,2012-10-23 00:35:00
9:35 PM,53.6,46.4,77,30.13,10.0,Calm,Calm,-,N/A,,Scattered Clouds,0,2012-10-23 01:35:00
9:55 PM,53.6,46.4,77,30.13,10.0,Calm,Calm,-,N/A,,Clear,0,2012-10-23 01:55:00
10:15 PM,51.8,46.4,82,30.13,10.0,Calm,Calm,-,N/A,,Mostly Cloudy,0,2012-10-23 02:15:00
10:55 PM,51.8,46.4,82,30.12,10.0,Calm,Calm,-,N/A,,Mostly Cloudy,0,2012-10-23 02:55:00
11:35 PM,51.8,46.4,82,30.13,10.0,SW,3.5,-,N/A,,Clear,220,2012-10-23 03:35:00
11:55 PM,53.6,46.4,77,30.12,10.0,Calm,Calm,-,N/A,,Clear,0,2012-10-23 03:55:00